Stündliche Wetter Holody

Heute, 21 Juni, Montag

Zeit Temperatur Niederschläge Wind Luftdruck Luftfeuchtigkeit
00:00 +19°C° 0 mm 2 m/S 747 mmHg 90%
01:00 +19°C° 0 mm 3 m/S 747 mmHg 92%
02:00 +20°C° 0 mm 3 m/S 747 mmHg 93%
03:00 +19°C° 0 mm 3 m/S 747 mmHg 92%
04:00 +19°C° 0 mm 3 m/S 746 mmHg 92%
05:00 +19°C° 0 mm 3 m/S 746 mmHg 91%
06:00 +20°C° 0 mm 4 m/S 746 mmHg 86%
07:00 +22°C° 0 mm 4 m/S 746 mmHg 80%
08:00 +25°C° 0 mm 4 m/S 747 mmHg 74%
09:00 +26°C° 0 mm 4 m/S 747 mmHg 68%
10:00 +28°C° 0 mm 5 m/S 746 mmHg 62%
11:00 +29°C° 0 mm 5 m/S 746 mmHg 56%
12:00 +30°C° 0 mm 5 m/S 746 mmHg 53%
13:00 +30°C° 0 mm 5 m/S 746 mmHg 51%
14:00 +32°C° 0 mm 5 m/S 745 mmHg 48%
15:00 +30°C° 0 mm 5 m/S 745 mmHg 54%
16:00 +29°C° 0 mm 4 m/S 745 mmHg 59%
17:00 +28°C° 0 mm 4 m/S 745 mmHg 64%
18:00 +27°C° 0 mm 3 m/S 745 mmHg 68%
19:00 +26°C° 0 mm 3 m/S 744 mmHg 72%
20:00 +25°C° 0 mm 3 m/S 744 mmHg 76%
21:00 +24°C° 0 mm 2 m/S 744 mmHg 79%
22:00 +23°C° 0 mm 2 m/S 744 mmHg 83%
23:00 +21°C° 0 mm 2 m/S 744 mmHg 86%

Morgen, 22 Juni, Dienstag

Zeit Temperatur Niederschläge Wind Luftdruck Luftfeuchtigkeit
00:00 +21°C° 0 mm 2 m/S 744 mmHg 88%
01:00 +20°C° 0 mm 2 m/S 744 mmHg 90%
02:00 +20°C° 0 mm 2 m/S 744 mmHg 92%
03:00 +20°C° 0 mm 2 m/S 744 mmHg 92%
04:00 +20°C° 0 mm 2 m/S 744 mmHg 93%
05:00 +20°C° 0 mm 2 m/S 745 mmHg 93%
06:00 +21°C° 0 mm 3 m/S 745 mmHg 86%
07:00 +24°C° 0 mm 3 m/S 745 mmHg 80%
08:00 +26°C° 0 mm 4 m/S 745 mmHg 73%
09:00 +27°C° 0 mm 4 m/S 745 mmHg 67%
10:00 +28°C° 0 mm 5 m/S 745 mmHg 62%
11:00 +29°C° 0 mm 5 m/S 746 mmHg 57%
12:00 +30°C° 0 mm 5 m/S 746 mmHg 54%
13:00 +32°C° 0 mm 4 m/S 746 mmHg 52%
14:00 +32°C° 0 mm 4 m/S 746 mmHg 49%
15:00 +32°C° 0 mm 4 m/S 746 mmHg 50%
16:00 +32°C° 0 mm 4 m/S 745 mmHg 51%
17:00 +31°C° 0 mm 3 m/S 745 mmHg 52%
18:00 +30°C° 0 mm 3 m/S 745 mmHg 59%
19:00 +28°C° 0 mm 3 m/S 745 mmHg 66%
20:00 +26°C° 0 mm 3 m/S 745 mmHg 73%
21:00 +25°C° 0 mm 3 m/S 746 mmHg 76%
22:00 +25°C° 0 mm 2 m/S 746 mmHg 78%
23:00 +24°C° 0 mm 2 m/S 746 mmHg 81%

übermorgen, 23 Juni, Mittwoch

Zeit Temperatur Niederschläge Wind Luftdruck Luftfeuchtigkeit
00:00 +23°C° 0.1 mm 2 m/S 746 mmHg 84%
01:00 +22°C° 0.1 mm 1 m/S 746 mmHg 88%
02:00 +22°C° 0.1 mm 1 m/S 747 mmHg 91%
03:00 +22°C° 0.1 mm 1 m/S 747 mmHg 91%
04:00 +21°C° 0.1 mm 2 m/S 747 mmHg 91%
05:00 +21°C° 0.1 mm 2 m/S 747 mmHg 90%
06:00 +23°C° 0.2 mm 2 m/S 747 mmHg 87%
07:00 +24°C° 0.2 mm 2 m/S 747 mmHg 83%
08:00 +26°C° 0.2 mm 2 m/S 748 mmHg 79%
09:00 +27°C° 0.6 mm 2 m/S 748 mmHg 76%
10:00 +28°C° 0.6 mm 2 m/S 748 mmHg 73%
11:00 +29°C° 0.6 mm 2 m/S 748 mmHg 70%
12:00 +29°C° 0.6 mm 1 m/S 748 mmHg 68%
13:00 +30°C° 0.6 mm 1 m/S 748 mmHg 65%
14:00 +30°C° 0.6 mm 1 m/S 748 mmHg 63%
15:00 +29°C° 2.2 mm 2 m/S 749 mmHg 69%
16:00 +27°C° 2.2 mm 3 m/S 749 mmHg 76%
17:00 +26°C° 2.2 mm 4 m/S 749 mmHg 83%
18:00 +25°C° 1.6 mm 3 m/S 749 mmHg 86%
19:00 +24°C° 1.6 mm 2 m/S 749 mmHg 89%
20:00 +23°C° 1.6 mm 2 m/S 749 mmHg 91%
21:00 +21°C° 0.1 mm 2 m/S 749 mmHg 92%
22:00 +21°C° 0.1 mm 2 m/S 749 mmHg 92%
23:00 +20°C° 0.1 mm 2 m/S 749 mmHg 93%

24 Juni, Donnerstag

Zeit Temperatur Niederschläge Wind Luftdruck Luftfeuchtigkeit
00:00 +20°C° 0.3 mm 2 m/S 749 mmHg 94%
01:00 +21°C° 0.3 mm 1 m/S 749 mmHg 94%
02:00 +21°C° 0.3 mm 1 m/S 749 mmHg 95%
03:00 +21°C° 0 mm 1 m/S 749 mmHg 95%
04:00 +21°C° 0 mm 1 m/S 749 mmHg 94%
05:00 +21°C° 0 mm 1 m/S 749 mmHg 94%
06:00 +22°C° 0 mm 1 m/S 749 mmHg 90%
07:00 +24°C° 0 mm 1 m/S 749 mmHg 85%
08:00 +25°C° 0 mm 1 m/S 749 mmHg 81%
09:00 +26°C° 0 mm 1 m/S 749 mmHg 76%
10:00 +28°C° 0 mm 1 m/S 749 mmHg 70%
11:00 +28°C° 0 mm 0 m/S 749 mmHg 64%
12:00 +30°C° 0.1 mm 1 m/S 749 mmHg 61%
13:00 +31°C° 0.1 mm 1 m/S 749 mmHg 59%
14:00 +32°C° 0.1 mm 2 m/S 749 mmHg 56%
15:00 +32°C° 0.1 mm 2 m/S 749 mmHg 56%
16:00 +32°C° 0.1 mm 2 m/S 749 mmHg 56%
17:00 +32°C° 0.1 mm 2 m/S 748 mmHg 56%
18:00 +30°C° 0.1 mm 1 m/S 748 mmHg 62%
19:00 +29°C° 0.1 mm 1 m/S 748 mmHg 68%
20:00 +28°C° 0.1 mm 1 m/S 748 mmHg 74%
21:00 +26°C° 0.2 mm 1 m/S 748 mmHg 78%
22:00 +25°C° 0.2 mm 1 m/S 748 mmHg 82%
23:00 +24°C° 0.2 mm 2 m/S 748 mmHg 86%

25 Juni, Freitag

Zeit Temperatur Niederschläge Wind Luftdruck Luftfeuchtigkeit
00:00 +23°C° 0.6 mm 2 m/S 748 mmHg 88%
01:00 +23°C° 0.6 mm 1 m/S 748 mmHg 90%
02:00 +22°C° 0.6 mm 1 m/S 748 mmHg 92%
03:00 +21°C° 0 mm 2 m/S 747 mmHg 93%
04:00 +21°C° 0 mm 2 m/S 747 mmHg 93%
05:00 +21°C° 0 mm 2 m/S 746 mmHg 94%
06:00 +22°C° 0.3 mm 3 m/S 747 mmHg 90%
07:00 +25°C° 0.3 mm 3 m/S 747 mmHg 87%
08:00 +26°C° 0.3 mm 4 m/S 747 mmHg 83%
09:00 +28°C° 0.1 mm 5 m/S 746 mmHg 76%
10:00 +29°C° 0.1 mm 5 m/S 746 mmHg 69%
11:00 +32°C° 0.1 mm 5 m/S 746 mmHg 61%
12:00 +32°C° 0.6 mm 5 m/S 746 mmHg 61%
13:00 +32°C° 0.6 mm 5 m/S 745 mmHg 61%
14:00 +32°C° 0.6 mm 4 m/S 745 mmHg 61%
15:00 +29°C° 4.5 mm 4 m/S 745 mmHg 70%
16:00 +27°C° 4.5 mm 4 m/S 745 mmHg 79%
17:00 +25°C° 4.5 mm 4 m/S 745 mmHg 89%
18:00 +23°C° 2.1 mm 4 m/S 745 mmHg 90%
19:00 +22°C° 2.1 mm 4 m/S 746 mmHg 92%
20:00 +20°C° 2.1 mm 4 m/S 746 mmHg 93%
21:00 +20°C° 0.2 mm 4 m/S 746 mmHg 94%
22:00 +20°C° 0.2 mm 4 m/S 746 mmHg 94%
23:00 +20°C° 0.2 mm 5 m/S 746 mmHg 94%

26 Juni, Samstag

Zeit Temperatur Niederschläge Wind Luftdruck Luftfeuchtigkeit
00:00 +20°C° 0 mm 4 m/S 746 mmHg 94%
01:00 +19°C° 0 mm 4 m/S 746 mmHg 94%
02:00 +19°C° 0 mm 4 m/S 746 mmHg 94%
03:00 +18°C° 0 mm 3 m/S 746 mmHg 94%
04:00 +18°C° 0 mm 3 m/S 746 mmHg 95%
05:00 +18°C° 0 mm 3 m/S 747 mmHg 95%
06:00 +18°C° 0 mm 3 m/S 747 mmHg 91%
07:00 +19°C° 0 mm 3 m/S 747 mmHg 88%
08:00 +20°C° 0 mm 3 m/S 747 mmHg 84%
09:00 +20°C° 0.1 mm 3 m/S 747 mmHg 79%
10:00 +21°C° 0.1 mm 4 m/S 748 mmHg 75%
11:00 +22°C° 0.1 mm 4 m/S 748 mmHg 70%
12:00 +22°C° 0.1 mm 4 m/S 748 mmHg 68%
13:00 +23°C° 0.1 mm 4 m/S 747 mmHg 65%
14:00 +23°C° 0.1 mm 5 m/S 747 mmHg 63%
15:00 +23°C° 0.1 mm 5 m/S 747 mmHg 64%
16:00 +23°C° 0.1 mm 5 m/S 747 mmHg 66%
17:00 +22°C° 0.1 mm 4 m/S 747 mmHg 67%
18:00 +21°C° 0 mm 4 m/S 747 mmHg 71%
19:00 +20°C° 0 mm 3 m/S 747 mmHg 75%
20:00 +19°C° 0 mm 2 m/S 747 mmHg 80%
21:00 +18°C° 0 mm 2 m/S 747 mmHg 82%
22:00 +17°C° 0 mm 2 m/S 747 mmHg 85%
23:00 +16°C° 0 mm 2 m/S 747 mmHg 88%
Mehr zeigen

Wir brauchen deine Erlaubnis

Meteoprog und unser Service Anbieter werden persönliche Daten aufbewahren, so wie Cookies, Geräte Bezeichnung oder ähnliche Technologien von deinem Gerät und Prozess, so wie Persönliche Daten Inhalte und Werbungen, genauso wie social Media und den Verkehr zu analysieren.

  • Aufbewahrung und/oder Zugang zu deiner Geräte Informationen.

    Cookies, Geräte Bezeichnung oder andere Informationen, können aufbewahrt oder Zugang zu deinem Gerät erhalten, für den Grund, der oben angegeben wird.

  • Personalisierte Werbung und Inhalte, Messungen, Einblick in das Publikum und Produkt Entwicklung.

    Werbungen und Inhalte können personalisiert werden, basierend auf ein Profil. Mehr Daten können besser personalisierte Werbungen und Inhalte hinzufügen. Werbung und Inhalte können gezeigt und gemessen werden. Einblicke über das Publikum, welche die Werbung gesehen haben und den Inhalt, können abgeleitet werden. So wie Daten können genutzt werden, um es zu verbessern oder die Benutzer Erfahrung zu verbessern das System und die Software.

Wenn du “Ich stimme zu” klickst, erlaubst du uns, die Cookies zu benutzen die Geräte Bezeichnung, den Web oder ähnliche Technologien zu benutzen. Deine Settings, können in deinem Gerät bei deinem Browser geändert werden.

Für den bestimmten Zweck, berechtigten Interessen beruhen darauf, mehr als auf den Inhalt. Du kannst mehr darüber in unseren Privaten und Cookie Politik lesen.